Location: Bremen
(53.0793°N, 8.8017°E)
Time: 20:42:44
(UTC+02:00)

Envisat - Pass Details

Date: 05 March 2024
Orbit: 762 x 764 km, 98.3° (Epoch: 13 April)

Event Time Altitude Azimuth Distance (km) Brightness Sun altitude
Rises 03:48:31 0° 16° (NNE) 3,244 6.9 -28.8°
Reaches altitude 10° 03:50:51 10° 20° (NNE) 2,313 6.1 -28.5°
Maximum altitude 03:55:55 65° 102° (ESE) 842 3.2 -27.8°
Enters shadow 03:56:18 63° 128° (SE) 857 3.2 -27.8°
